Погода в Херентальзе

Бельгия     51°10′39″N   4°50′08″E
темп.,
°C
ветер,
м/с
пор.,
м/с
влажн.,
%
обл.,
%
осадки,
мм/ч
давл.,
гПа
погр.,
м
1 декабря, ср
ср101:00+10юз91891100 0.8 10021329
04:00+9юз101985100 0.0 9981193
07:00+9юз111986100 0.3 9931071
10:00+10з9147998 0.9 9921233
13:00+9з71381100 1.4 9931264
16:00+8з71378100 0.8 9941121
19:00+7сз6118899 2.3 996952
22:00+7зсз487688 0.8 999707
2 декабря, чт
чт201:00+6зсз3879100 1.0 1000490
04:00+5сз61175100 0.6 1000845
07:00+4сз61266100 1.3 10011000
10:00+5сз7127081 1.1 10021125
13:00+6сз396743 2.1 10031194
16:00+5ссз51265100 0.8 1005702
19:00+3ссз268282 1.9 1008187
22:00+2сз11815 0.0 101011
3 декабря, пт
пт301:00+2юз3382100 0.0 101153
04:00+1зюз3586100 0.0 101186
07:00+2юз41189100 0.1 1012337
10:00+2ююз51378100 0.0 1011509
13:00+4ююз71373100 0.0 10081019
16:00+3ююз71487100 0.3 1005900
19:00+3ююз71488100 1.3 1003901
22:00+3ююз61291100 0.5 1000605
4 декабря, сб
сб401:00+4ююз31095100 1.1 998500
04:00+5юз3899100 0.2 996348
07:00+6зюз3698100 0.3 996224
10:00+6юз2592100 0.2 997153
13:00+8зюз4987100 0.4 996527
16:00+7зсз51081100 1.2 9981003
19:00+6зюз51075100 1.4 1000966
22:00+4з5108495 0.2 1001508
5 декабря, вс
вс501:00+5зюз498293 0.6 1002438
04:00+4юз51088100 0.3 1003392
07:00+3юз489314 1.1 1004245
10:00+3юз259186 0.0 1006227
13:00+5юз238465 0.0 1008447
16:00+4з1286100 0.0 1011204
19:00+3зюз119499 0.1 101316
22:00+4з239278 0.1 1016102